Meteo Giornale » Osservazioni meteo Olanda » F3-Fb-1 Sea
ore: 08:25 - Osservazioni Meteo F3-Fb-1 Sea
Lat. 54° 51' N Lon. 4° 42' E Alt. 50 metri s.l.m.
17 °C
Poco Nuvoloso
Temp. 24 Ore
17 °C
18 °C
Ovest
38.8 Km/h
Dew point 14 °C
Umidità 82 %
Visibilità 10 Km
Il sole sorge alle ore 06:48
Il sole tramonta alle ore 20:34
| Data e Ora | Cielo e Fenomeni | T °C | DP °C | Um. % | Pres. hPa | Vis. km | Vento km/h | |
|---|---|---|---|---|---|---|---|---|
| Oggi h: 08:25 | Poco Nuvoloso | 17 | 14 | 82 | 1013 | 10 | O 38.8 | |
| Oggi h: 07:55 | Nuvoloso | 17 | 14 | 82 | 1013 | 10 | O 37 | |
| Oggi h: 07:25 | Poco Nuvoloso | 17 | 14 | 82 | 1013 | 10 | O 37 | |
| Oggi h: 06:55 | Poco Nuvoloso | 17 | 15 | 88 | 1013 | 10 | O 31.5 | |
| Oggi h: 06:25 | Poco Nuvoloso | 17 | 14 | 82 | 1012 | 10 | O 33.3 | |
| Oggi h: 05:55 | Nuvoloso | 17 | 15 | 88 | 1012 | 10 | O 31.5 | |
| Oggi h: 05:25 | Nuvoloso | 17 | 14 | 82 | 1012 | 10 | O 33.3 | |
| Oggi h: 04:55 | Nuvoloso | 17 | 15 | 88 | 1012 | 10 | O/NO 33.3 | |
| Oggi h: 04:25 | Poco Nuvoloso | 18 | 15 | 82 | 1012 | 10 | O 38.8 | |
| Oggi h: 03:55 | Poco Nuvoloso | 18 | 15 | 82 | 1012 | 10 | O 42.6 | |
| Oggi h: 03:25 | Poco Nuvoloso | 18 | 14 | 77 | 1012 | 10 | O 46.3 | |
| Oggi h: 02:55 | Poco Nuvoloso | 18 | 15 | 82 | 1011 | 10 | O 42.6 | |
| Oggi h: 02:25 | Poco Nuvoloso | 18 | 14 | 77 | 1011 | 10 | O 48.1 | |
| Oggi h: 01:55 | Nuvoloso | 18 | 14 | 77 | 1011 | 10 | O 48.1 | |
| Oggi h: 01:25 | Poco Nuvoloso | 18 | 14 | 77 | 1011 | 10 | O 50 | |
| Oggi h: 00:55 | Poco Nuvoloso | 17 | 14 | 82 | 1011 | 10 | O 48.1 | |
| Oggi h: 00:25 | Poco Nuvoloso | 18 | 14 | 77 | 1011 | 10 | O 46.3 | |
| Ieri h: 23:55 | Poco Nuvoloso | 18 | 14 | 77 | 1011 | 10 | O 46.3 | |
| Ieri h: 23:25 | Nuvoloso | 18 | 14 | 77 | 1011 | 10 | O 44.4 | |
| Ieri h: 22:55 | Poco Nuvoloso | 18 | 14 | 77 | 1011 | 10 | O 44.4 | |
| Ieri h: 22:25 | Poco Nuvoloso | 18 | 14 | 77 | 1010 | 10 | O 40.7 | |
| Ieri h: 21:55 | Poco Nuvoloso | 18 | 14 | 77 | 1010 | 10 | O 40.7 | |
| Ieri h: 21:25 | Poco Nuvoloso | 17 | 14 | 82 | 1010 | 10 | O/NO 40.7 | |
| Ieri h: 20:55 | Poco Nuvoloso | 18 | 14 | 77 | 1009 | 10 | O/NO 42.6 | |
| Ieri h: 20:25 | Nuvoloso | 17 | 14 | 82 | 1009 | 10 | O/NO 40.7 | |
| Ieri h: 19:55 | Poco Nuvoloso | 18 | 14 | 77 | 1008 | 10 | O/NO 42.6 | |
| Ieri h: 19:25 | Poco Nuvoloso | 18 | 15 | 82 | 1008 | 10 | O/NO 40.7 | |
| Ieri h: 18:55 | Poco Nuvoloso | 18 | 15 | 82 | 1008 | 10 | O/NO 38.8 | |
| Ieri h: 18:25 | Poco Nuvoloso | 18 | 15 | 82 | 1007 | 10 | O/NO 37 | |
| Ieri h: 17:55 | Poco Nuvoloso | 18 | 15 | 82 | 1007 | 10 | O/NO 35.2 | |
| Ieri h: 17:25 | Sereno | 18 | 15 | 82 | 1006 | 10 | O/NO 37 | |
| Ieri h: 16:55 | Nuvoloso | 18 | 15 | 82 | 1006 | 10 | O/NO 33.3 | |
| Ieri h: 16:25 | Nuvoloso | 18 | 16 | 88 | 1006 | 10 | O/NO 31.5 | |
| Ieri h: 15:55 | Poco Nuvoloso | 18 | 16 | 88 | 1005 | 10 | O/NO 25.9 | |
| Ieri h: 15:25 | Sereno | 18 | 15 | 82 | 1005 | 10 | O/NO 18.5 | |
| Ieri h: 14:55 | Poco Nuvoloso | 18 | 14 | 77 | 1005 | 10 | O/NO 13 | |
| Ieri h: 14:25 | Poco Nuvoloso | 18 | 15 | 82 | 1005 | 10 | O/NO 9.3 | |
| Ieri h: 13:55 | Sereno | 18 | 15 | 82 | 1004 | 10 | O/SO 7.4 | |
| Ieri h: 13:25 | Sereno | 18 | 15 | 82 | 1004 | 10 | S/SO 11.1 | |
| Ieri h: 12:55 | Nuvoloso | 18 | 15 | 82 | 1004 | 10 | O/SO 14.8 | |
| Ieri h: 12:25 | Poco Nuvoloso | 18 | 15 | 82 | 1004 | 7 | S/SO 14.8 | |
| Ieri h: 11:55 | Poco Nuvoloso | 18 | 15 | 82 | 1004 | 6 | SO 14.8 | |
| Ieri h: 11:25 | Nuvoloso | 18 | 15 | 82 | 1004 | 9 | S/SO 20.3 | |
| Ieri h: 10:55 | Foschia | 18 | 15 | 82 | 1003 | 3 | SO 18.5 | |
| Ieri h: 10:25 | Foschia | 18 | 14 | 77 | 1003 | 3 | O/SO 24 | |
| Ieri h: 09:55 | Sereno | 18 | 16 | 88 | 1003 | 10 | O/SO 27.8 | |
| Ieri h: 09:25 | Poco Nuvoloso | 18 | 16 | 88 | 1003 | 10 | O/SO 27.8 | |
| Ieri h: 08:55 | Sereno | 18 | 16 | 88 | 1003 | 10 | O/SO 27.8 | |



